Hourly Data Report for September 23, 2017

All times are specified in Local Standard Time (LST). Add 1 hour to adjust for Daylight Saving Time where and when it is observed.

COMOX A
BRITISH COLUMBIA

49°43'00.000" N
124°54'00.000" W
25.60 m
1021830
71893
YQQ

Download Data

Hourly Data (September 2017)
Hourly Data Report for September 23, 2017
Temp Definition
°C
Dew Point Temp Definition
°C
Rel Hum Definition
%
Wind Dir Definition
10's deg

Wind Spd Definition
km/h
Visibility Definition
km
Stn Press Definition
kPa
Hmdx Definition


Wind Chill Definition


Weather Definition


TIME
00:00 14.2 8.1 67   0 32.2 101.35     Cloudy
01:00 13.6 8.7 72   0 32.2 101.37     Mostly Cloudy
02:00 12.9 8.9 77 23 4 32.2 101.37     Mostly Cloudy
03:00 12.0 9.1 82   0 32.2 101.36     Mostly Cloudy
04:00 11.8 9.1 84   0 32.2 101.38     Mostly Cloudy
05:00 9.6 7.9 89 34 7 32.2 101.42     Mainly Clear
06:00 9.9 8.1 89 31 4 32.2 101.48     Mainly Clear
07:00 10.9 8.5 85 31 6 32.2 101.55     Mainly Clear
08:00 13.4 9.0 75 34 4 32.2 101.58     Mainly Clear
09:00 14.5 9.1 70 36 6 32.2 101.60     Mostly Cloudy
10:00 14.8 9.3 70 4 7 32.2 101.60     Mostly Cloudy
11:00 15.9 9.2 64 2 9 32.2 101.62     Mostly Cloudy
12:00 15.9 9.3 65 6 6 32.2 101.65     Mostly Cloudy
13:00 16.1 9.5 65 4 7 32.2 101.66     Mostly Cloudy
14:00 16.9 9.0 60 8 6 32.2 101.64     Mostly Cloudy
15:00 17.2 8.7 57 6 4 32.2 101.65     Mostly Cloudy
16:00 16.5 8.9 61 3 4 32.2 101.64     Mostly Cloudy
17:00 17.2 8.6 57   0 32.2 101.61     Mostly Cloudy
18:00 15.4 9.9 70 3 4 32.2 101.62     Mostly Cloudy
19:00 15.1 10.2 73 32 4 32.2 101.65     Mostly Cloudy
20:00 15.2 10.3 73 18 4 32.2 101.66     Mostly Cloudy
21:00 15.2 10.2 72 23 6 32.2 101.65     Mostly Cloudy
22:00 15.0 10.4 74   0 32.2 101.66     Mostly Cloudy
23:00 14.8 10.1 73 29 4 32.2 101.72     Cloudy

Notes on Data Quality.

Legend

  • E = Estimated
  • M = Missing
  • NA = Not Available
  • ‡ = Partner data that is not subject to review by the National Climate Archives
Date modified: